Location: Newark
(52.2090°N, 4.1550°W)
Time: 09:48:08
(UTC+00:00)

Explorer 7 - Pass Details

Date: 24 September 2019
Orbit: 485 x 680 km, 50.3° (Epoch: 22 October)

Event Time Altitude Azimuth Distance (km) Brightness Sun altitude
Rises 00:26:01 0° 265° (W) 2,870 - -37.9°
Reaches altitude 10° 00:28:16 10° 263° (W) 1,996 - -37.9°
Maximum altitude 00:32:51 72° 180° (S) 686 - -37.8°
Drops below altitude 10° 00:37:41 10° 97° (E) 2,092 - -37.7°
Sets 00:40:05 0° 95° (E) 3,020 - -37.7°
